Location: Capelle
(50.3413°N, 1.9974°E)
Time: 00:27:27
(UTC+00:00)

CBERS-1 - Pass Details

Date: 12 January 2026
Orbit: 765 x 772 km, 98.9° (Epoch: 9 February)

Event Time Altitude Azimuth Distance (km) Brightness Sun altitude
Rises 16:42:39 0° 162° (SSE) 3,227 7.4 -4.9°
Reaches altitude 10° 16:44:57 10° 162° (SSE) 2,304 6.6 -5.2°
Maximum altitude 16:50:02 88° 72° (ENE) 775 4.1 -5.9°
Drops below altitude 10° 16:55:09 10° 345° (NNW) 2,316 6.4 -6.7°
Sets 16:57:27 0° 345° (NNW) 3,246 7.1 -7.0°
